Location: Aulagny
(45.1643°N, 4.3096°E)
Time: 05:22:24
(UTC+00:00)

BREEZE-M DEB (TANK) - Pass Details

Date: 21 October 2019
Orbit: 669 x 22260 km, 51.1° (Epoch: 13 November)

Event Time Altitude Azimuth Distance (km) Brightness Sun altitude
Rises 17:59:43 0° 297° (WNW) 3,074 7.3 -13.3°
Reaches altitude 10° 18:01:21 10° 298° (WNW) 2,309 6.5 -13.6°
Maximum altitude 18:05:49 84° 28° (NNE) 1,188 3.9 -14.4°
Enters shadow 18:18:42 12° 118° (ESE) 6,308 7.1 -16.6°
